Tracking 30692 objects as of 16-Jun-2025
HD Live streaming from Space Station
objects crossing your sky now

STARLINK-30963

Track STARLINK-30963 now!
10-day predictions
STARLINK-30963 is classified as:


NORAD ID: 58444
Int'l Code: 2023-183H
Perigee: 565.4 km
Apogee: 567.1 km
Inclination: 43.0 °
Period: 95.8 minutes
Semi major axis: 6937 km
RCS: Unknown
Launch date: November 28, 2023
Source: United States (US)
Launch site: AIR FORCE EASTERN TEST RANGE (AFETR)
Your satellite tracking list
Your tracking list is empty




NASA's NSSDC Master Catalog

Two Line Element Set (TLE):
1 58444U 23183H   25166.75524119 -.00000306  00000-0 -76161-5 0  9993
2 58444  43.0036  53.4849 0001210 271.4767  88.5937 15.02524189 86566
Source of the keplerian elements: AFSPC